Location: Bonaustraße
(48.4603°N, 11.9280°E)
Time: 17:43:19
(UTC+01:00)

Envisat - Pass Details

Date: 29 January 2021
Orbit: 764 x 766 km, 98.1° (Epoch: 05 March)

Event Time Altitude Azimuth Distance (km) Brightness Sun altitude
Rises 06:23:42 0° 11° (NNE) 3,245 6.3 -13.6°
Reaches altitude 10° 06:26:02 10° 9° (N) 2,314 5.5 -13.2°
Maximum altitude 06:31:06 69° 287° (WNW) 822 2.9 -12.4°
Drops below altitude 10° 06:36:07 10° 206° (SSW) 2,296 5.4 -11.5°
Sets 06:38:25 0° 204° (SSW) 3,217 6.1 -11.2°
